Showing default

KINEIS-3D, 61221

Orbit data source: Space-Track

KINEIS-3D, 61221 is a French payload satellite in SSO that was launched on Fri, 20 Sep 2024 UTC via an ELECTRON launch vehicle from the Rocket Lab Launch Complex (RLLC). Payload-class satellites include a variety of spacecraft equipped with specific instruments for various scientific and technological missions. These include communications satellites like Starlink; space stations such as the ISS; scientific satellites like the Hubble; Earth observation satellites from companies like Planet Labs, Umbra, and HawkEye 360; GPS; miniature CubeSats for education and research; and military/defense satellites.

Loading next visibility...
Identifier
61221, 2024-172B
Orbit
SSO
Country
Flag of FRFR
Related business
Manufacturer
KINEIS
Mission
Operational Commercial Communications
Bus & Motor
CUBESAT 16U, Unknown motor
Mass
28 kg wet, 28 kg dry
Launch date (UTC)
2024-09-20 (2 years ago)
Launch vehicle
ELECTRON
Launch site
Rocket Lab Launch Complex (RLLC)
Object type
Payload
Rocket body
Debris
Shape & HBR
Box + 2 Pan + 1 Ant, 1.0 m
Radar Cross Section
0.229 m², Medium (>0.1 m² and < 1m²)

Expand to show TLE details & history
Last TLE update: 16 hours ago

TLE from 16 hours ago
0 KINEIS-3D
1 61221U 24172B   26171.19218565  .00001433  00000-0  23468-3 0  9999
2 61221  98.0432 261.0690 0002510 119.0884 241.0575 14.72288373 93790
Epoch: 2026-06-20T04:36Z
TLE epoch observation values (Epoch: 2026-06-20T04:36:44.840Z)
Latitude
0.00001°
Longitude
-76.52817°
Altitude
657.634 km
Speed
7.528 km/s
True Right ascension
17h 24m 16s
True Declination
0° 00' 00"
Sunlit
Object was in full shadow at epoch
Visualization orbit readout
Latitude
Unknown
Longitude
Unknown
Altitude
Unknown
Speed
Unknown
Apparent Right ascension
Unknown
Apparent Declination
Unknown
Sunlit
N/A
Visualization observer readout
Local Sidereal Time
07:18:12
Azimuth
Unknown
Elevation
Unknown
Doppler factor
Unknown
Orbital elements
Apogee altitude
652.594 km
Perigee altitude
649.066 km
Semi-major axis
7,028.967 km
Eccentricity
0.00025
Inclination
98.0432°
RAAN
261.069°
Arg. of periapsis
119.0884°
True anomaly
241.03233°
Mean anomaly
241.0575°
Eccentric anomaly
241.04492°
Mean motion
3.68304 °/min
Orbital period
97.75 mins
BSTAR
0.00023468
Loading maneuver chart data...
Computing Atmospheric mass density...
Loading historical data...
Loading historical data...
Loading historical data...
Loading historical data...
Loading historical data...
Loading historical data...
Loading historical data...

Documentation

Showing up to 5 results
|